Home > Weather > Riehen > Past weeks

Flag for Switzerland Past Weather in Riehen, Basel-Stadt, Switzerland — Yesterday and Last 2 Weeks

Now
76 °F

Partly sunny.


Feels Like: 78 °F
Forecast: 65 / 78 °F
Wind: 6 mph from Northwest

Location: Bale-Mulhouse

Current Time: Jul 23, 2016 at 9:26:48 PM

Latest Report: Jul 23, 2016 at 8:00 PM


Visibility: 19 mi

Pressure: 30.02 "Hg

Humidity: 67%

Dew Point: 64 °F

Location of RiehenLocation

Past Weather in Riehen — Graph

°F

Riehen Temperature Yesterday

Maximum temperature yesterday: 78 °F (at 10:00 AM)
Minimum temperature yesterday: 62 °F (at 11:00 PM)
Average temperature yesterday: 69 °F

High & Low Weather Summary for the Past Weeks

 TemperatureHumidityPressure
High95 °F (Jul 20, 4:00 PM)98% (Jul 16, 7:00 AM)30.37 "Hg (Jul 16, 7:00 AM)
Low45 °F (Jul 16, 5:00 AM)30% (Jul 19, 6:00 PM)29.84 "Hg (Jul 10, 6:00 PM)
Average68 °F72%30.07 "Hg
* Reported Jul 8 8:00 PM — Jul 23 8:00 PM, Riehen, Weather by CustomWeather, © 2016

Note: Actual official high and low records may vary slightly from our data, if they occured in-between our weather recording intervals... More about our weather records

Advertising

Riehen Weather History for the Previous 24 Hours

Scroll right to see more
 ConditionsComfort  
Time TempWeatherWind HumidityBarometerVisibility
8:00 PM
Sat, Jul 23
76 °FPartly sunny.6 mph67%30.02 "Hg19 mi
7:00 PM76 °FPartly sunny.7 mph65%30.01 "Hg22 mi
6:00 PM75 °FPartly sunny.5 mph69%30.02 "Hg19 mi
5:00 PM80 °FPartly sunny.7 mph54%30.01 "Hg19 mi
4:00 PM78 °FPartly sunny.8 mph59%30.02 "Hg19 mi
3:00 PM79 °FPartly sunny.8 mph60%30.02 "Hg19 mi
2:00 PM77 °FPartly sunny.7 mph60%30.03 "Hg19 mi
1:00 PM77 °FPartly sunny.5 mph63%30.03 "Hg19 mi
12:00 PM73 °FPartly sunny.5 mph70%30.04 "Hg19 mi
11:00 AM71 °FOvercast.3 mph76%30.05 "Hg19 mi
10:00 AM69 °FOvercast.3 mph80%30.04 "Hg19 mi
9:00 AM68 °FOvercast.2 mph84%30.04 "Hg19 mi
8:00 AM65 °FLow clouds.2 mph93%30.04 "Hg19 mi
7:00 AM62 °FOvercast.2 mph97%30.03 "Hg9 mi
6:00 AM62 °FPartly sunny.1 mph96%30.03 "Hg9 mi
5:00 AM61 °FOvercast.2 mph97%30.03 "Hg9 mi
4:00 AM62 °FOvercast.No wind96%30.03 "Hg4 mi
3:00 AM63 °FOvercast.2 mph96%30.03 "Hg10 mi
2:00 AM63 °FOvercast.3 mph96%30.03 "Hg9 mi
1:00 AM62 °FLight rain. Overcast.3 mph97%30.03 "Hg11 mi
12:00 AM62 °FPassing clouds.1 mph95%30.04 "Hg16 mi
11:00 PM
Fri, Jul 22
62 °FPassing clouds.2 mph93%30.04 "Hg16 mi
10:00 PM64 °FPassing clouds.2 mph91%30.03 "Hg16 mi
9:00 PM66 °FPartly sunny.3 mph83%30.02 "Hg19 mi
Weather by CustomWeather, © 2016

See weather overviewHow to use our weather pages